Fallon NAS, NV

12:16 PM PDT on August 18, 2017 (GMT -0700)
Fallon Naval Air Station

Weather History for KNFL - September, 2013

Change the Weather History Date:

Thursday, September 12, 2013

  Actual Average Record
Temperature  
Mean Temperature 75 °F -  
Max Temperature 87 °F 80 °F 98 °F (2015)
Min Temperature 64 °F 43 °F 30 °F (1985)
Cooling Degree Days 10    
Growing Degree Days 25 (Base 50)    
Moisture  
Dew Point 49 °F    
Average Humidity 44    
Maximum Humidity 65    
Minimum Humidity 25    
Precipitation  
Precipitation 0.00 in - - ()
Sea Level Pressure  
Sea Level Pressure 29.93 in    
Wind  
Wind Speed 6 mph (NNW)    
Max Wind Speed 22 mph    
Max Gust Speed 30 mph    
Visibility 10 miles    
Events Rain , Thunderstorm    
Averages and records for this station are not official NWS values.
T = Trace of Precipitation, MM = Missing Value Source: NWS Daily Summary

Daily Weather History Graph

Daily Weather History Graph

Search for Another Location

Airport or City:

Trip Planner

Search our weather history database for the weather conditions in past years. The results will help you decide how hot, cold, wet, or windy it might be!

Date:

Astronomy

Sep. 12, 2013 Rise Set
Actual Time 6:33 AM PDT 7:07 PM PDT
Civil Twilight 6:06 AM PDT 7:34 PM PDT
Nautical Twilight 5:34 AM PDT 8:06 PM PDT
Astronomical Twilight 5:01 AM PDT 8:39 PM PDT
Moon 2:03 PM PDT (9/12) No Moon Set
Length of Visible Light 13h 28m
Length of Day
12h 34m
Waxing Crescent, 51% of the Moon is Illuminated
Sep 12
Waxing Crescent
Sep 19
Full
Sep 26
Last Quarter
Oct 4
New
Oct 11
First Quarter

Hourly Weather History & Observations

Time (PDT) Temp. Heat Index Dew Point Humidity Pressure Visibility Wind Dir Wind Speed Gust Speed Precip Events Conditions
12:56 AM 71.1 °F - 45.0 °F 39% 29.91 in 10.0 mi Variable 6.9 mph - N/A   Mostly Cloudy
1:56 AM 71.1 °F - 45.0 °F 39% 29.91 in 10.0 mi Variable 3.5 mph - N/A   Partly Cloudy
2:56 AM 69.1 °F - 44.1 °F 40% 29.92 in 10.0 mi East 6.9 mph - N/A   Clear
3:56 AM 68.0 °F - 45.0 °F 43% 29.91 in 10.0 mi SE 5.8 mph - N/A   Partly Cloudy
4:56 AM 68.0 °F - 46.9 °F 47% 29.92 in 10.0 mi Calm Calm - N/A   Scattered Clouds
5:56 AM 66.0 °F - 46.0 °F 48% 29.93 in 10.0 mi West 4.6 mph - N/A   Clear
6:18 AM 66.2 °F - 46.4 °F 49% 30.02 in 10.0 mi NNW 5.8 mph - N/A   Mostly Cloudy
6:56 AM 64.0 °F - 46.0 °F 52% 29.94 in 10.0 mi WNW 3.5 mph - N/A   Mostly Cloudy
7:56 AM 71.1 °F - 46.9 °F 42% 29.95 in 10.0 mi Calm Calm - N/A   Mostly Cloudy
8:56 AM 73.9 °F - 48.0 °F 40% 29.96 in 10.0 mi Calm Calm - N/A   Mostly Cloudy
9:56 AM 75.9 °F - 48.9 °F 38% 29.96 in 10.0 mi Variable 4.6 mph - N/A   Mostly Cloudy
10:56 AM 80.1 °F - 48.9 °F 34% 29.96 in 10.0 mi Calm Calm - N/A   Mostly Cloudy
11:56 AM 80.1 °F - 50.0 °F 35% 29.94 in 10.0 mi Variable 5.8 mph - N/A   Mostly Cloudy
12:56 PM 82.9 °F - 48.9 °F 31% 29.93 in 10.0 mi North 5.8 mph - N/A   Mostly Cloudy
1:56 PM 86.0 °F - 46.9 °F 26% 29.90 in 10.0 mi NW 8.1 mph - N/A   Mostly Cloudy
2:56 PM 84.9 °F - 45.0 °F 25% 29.89 in 10.0 mi North 10.4 mph - N/A   Mostly Cloudy
3:10 PM 80.6 °F - 51.8 °F 37% 29.97 in 10.0 mi NNW 21.9 mph 29.9 mph 0.00 in Rain , Thunderstorm Light Thunderstorms and Rain
3:37 PM 75.2 °F - 55.4 °F 50% 29.97 in 10.0 mi North 8.1 mph - 0.00 in Thunderstorm Thunderstorm
3:49 PM 80.6 °F 80.3 °F 53.6 °F 39% 29.97 in 10.0 mi NW 11.5 mph - 0.00 in   Mostly Cloudy
3:56 PM 80.1 °F - 51.1 °F 36% 29.88 in 10.0 mi NNW 8.1 mph - 0.00 in   Mostly Cloudy
4:56 PM 84.9 °F - 48.9 °F 29% 29.88 in 10.0 mi WNW 12.7 mph - N/A   Mostly Cloudy
5:56 PM 78.1 °F - 52.0 °F 40% 29.90 in 10.0 mi NNW 15.0 mph - N/A   Mostly Cloudy
6:56 PM 72.0 °F - 55.0 °F 55% 29.92 in 10.0 mi NNE 10.4 mph - N/A   Mostly Cloudy
7:56 PM 70.0 °F - 55.0 °F 59% 29.92 in 10.0 mi NE 4.6 mph - N/A   Mostly Cloudy
8:56 PM 69.1 °F - 55.0 °F 61% 29.94 in 10.0 mi West 5.8 mph - N/A   Scattered Clouds
9:56 PM 69.1 °F - 53.1 °F 57% 29.95 in 10.0 mi Calm Calm - N/A   Scattered Clouds
10:56 PM 64.9 °F - 52.0 °F 63% 29.94 in 9.0 mi ESE 3.5 mph - N/A   Mostly Cloudy
11:56 PM 64.0 °F - 52.0 °F 65% 29.94 in 9.0 mi SSE 5.8 mph - N/A   Clear